Location: Newark
(47.5833°N, 8.1500°E)
Time: 01:03:12
(UTC+00:00)

Vanguard 2 Rocket - All Passes

Search period start: 27 October 2020 00:00
Search period end: 06 November 2020 00:00
Orbit: 554 x 3326 km, 32.9° (Epoch: 26 October)

Date Brightness Start Highest point End Pass type
(mag) Time Alt. Az. Time Alt. Az. Time Alt. Az.
27 Oct - 19:31:03 10° SSW 19:34:12 17° S 19:38:11 10° SE visible
27 Oct - 21:42:30 10° SW 21:46:36 18° S 21:52:07 10° SSE night (unlit)
28 Oct - 18:32:58 10° SSW 18:35:07 13° SSE 18:37:34 10° SE visible
28 Oct - 20:43:42 10° SW 20:47:11 17° S 20:51:44 10° SE night (unlit)
28 Oct - 22:57:55 10° SSW 23:00:03 11° SSW 23:02:27 10° S night (unlit)
29 Oct - 19:45:05 10° SW 19:47:56 16° S 19:51:25 10° SE visible
29 Oct - 21:57:57 10° SW 22:00:27 12° SSW 22:03:21 10° S night (unlit)
30 Oct - 18:46:38 10° SSW 18:48:47 14° S 18:51:14 10° SE visible
30 Oct - 20:58:39 10° SW 21:01:00 13° S 21:03:45 10° SSE night (unlit)
31 Oct - 17:48:29 10° S 17:49:43 11° S 17:51:00 10° SSE visible
31 Oct - 19:59:41 10° SSW 20:01:43 12° S 20:04:00 10° SSE visible
01 Nov - 19:00:54 10° SSW 19:02:31 12° S 19:04:18 10° SSE visible
02 Nov - 18:02:09 10° SSW 18:03:25 11° S 18:04:43 10° SSE visible
03 Nov - 17:03:22 10° S 17:04:19 11° S 17:05:15 10° SSE visible
04 Nov - 16:04:29 10° S 16:05:12 10° S 16:05:54 10° SSE daylight
05 Nov - 15:05:30 10° S 15:06:02 10° S 15:06:32 10° SSE daylight
05 Nov - 17:17:02 10° SSW 17:18:00 11° S 17:18:58 10° S visible
